Lid_Strength_Index
8 12 14 12 11 11 11 13 13 12 10 10 11 11 9 8 8 8 8 7 6 6 9 7 5 6 7 6 5 4 5 5 3 2 2 2 3 4 5 5 5 4 3 3
11 13 10 9 10 11 12 13 14 11 10 11 12 11 9 9 8 8 8 7 7 10 10 10 9 9 9 9 8 8 8 7 6 5 5 4 5 6 6 5 5 5 5 4
12 11 9 10 11 13 13 14 13 14 11 10 12 13 11 10 9 8 7 7 7 9 10 11 11 11 10 10 10 9 9 9 8 7 6 5 5 6 6 7 7 8 8 7
11 9 10 11 12 11 15 11 11 12 14 17 11 19 13 11 11 10 9 8 8 10 10 11 11 10 10 11 10 10 10 10 9 8 6 7 7 8 8 9 9 9 10 10
13 12 12 13 12 10 13 10 11 12 14 14 14 16 14 12 12 12 12 11 11 11 11 11 11 11 11 11 11 11 11 11 10 10 9 9 10 10 10 11 11 10 11 11
11 8 9 10 9 9 9 11 12 12 14 19 15 16 16 13 12 11 12 12 12 11 11 11 11 10 11 11 11 11 11 12 11 11 11 11 11 12 12 12 12 12 12 12
12 11 9 8 12 10 11 13 19 20 20 20 15 16 15 12 10 11 12 12 11 11 11 11 11 11 11 12 11 11 11 13 12 12 12 12 12 13 13 13 13 13 13 13
16 18 12 9 11 13 13 13 18 22 21 19 15 19 15 12 11 11 11 11 11 12 11 11 11 11 12 12 12 12 12 13 13 13 13 13 13 14 14 14 14 15 14 14
16 16 10 10 9 10 13 15 13 18 20 19 17 15 14 12 13 12 12 12 12 12 11 12 11 12 12 12 12 13 13 14 14 14 14 15 15 15 15 15 15 15 15 14
12 17 11 11 9 10 11 10 16 16 21 22 19 20 18 15 13 13 12 12 12 11 11 11 11 12 12 13 13 14 14 14 14 15 15 15 15 15 16 16 16 16 15 14
10 13 14 11 13 14 13 14 14 14 17 20 21 19 16 16 12 12 12 12 11 11 11 11 12 12 13 14 14 14 14 15 15 15 16 16 16 16 16 16 16 16 15 15
10 13 16 15 12 11 11 13 13 17 18 18 18 19 14 15 13 10 11 11 10 10 10 11 12 13 14 14 14 15 15 15 16 16 16 16 16 16 16 16 16 16 16 15
10 14 18 17 13 12 13 13 13 14 15 18 19 18 14 14 14 11 11 10 10 11 12 12 13 13 15 15 15 15 15 15 16 16 16 17 17 17 17 17 16 16 16 15
8 14 15 18 16 13 15 13 14 13 17 17 17 16 15 15 14 13 13 12 12 12 12 12 13 14 14 14 15 15 15 15 15 16 16 16 16 17 17 16 16 16 15 15
11 16 15 15 14 13 13 13 14 14 14 16 15 16 15 14 14 13 12 11 12 12 12 12 12 13 14 14 15 15 15 15 15 16 17 17 17 17 16 16 16 16 16 16
12 15 14 16 14 13 14 13 13 13 14 16 16 16 13 12 13 13 11 11 10 10 10 11 12 13 14 15 15 15 15 16 16 17 17 17 17 16 17 17 16 16 16 16
13 14 16 18 17 14 16 14 14 15 14 15 17 14 12 12 12 12 11 10 10 9 10 11 12 13 14 14 14 15 15 16 16 17 17 17 17 17 17 17 17 17 17 16
13 16 16 17 18 20 16 17 15 14 13 13 13 12 11 11 11 11 11 10 10 10 11 12 13 14 14 15 15 15 15 16 16 17 17 18 17 17 17 17 18 17 17 17
12 16 22 20 23 19 18 17 14 14 14 12 12 12 12 12 12 12 12 11 11 11 12 13 13 14 15 15 15 15 16 16 16 17 18 18 18 18 18 18 18 18 18 17
14 15 17 27 23 24 17 15 13 13 16 12 12 12 13 12 13 13 12 13 14 14 14 14 15 15 15 15 15 15 16 17 17 18 18 19 18 18 18 19 19 18 18 18
17 21 22 27 26 22 18 14 14 17 15 14 12 12 13 13 13 13 14 14 14 14 15 15 15 15 15 16 16 16 17 17 18 19 19 20 19 19 19 20 20 20 20 20
18 21 25 28 25 21 17 15 15 15 14 14 13 13 13 14 14 14 14 14 15 15 15 15 15 16 16 16 16 16 17 18 20 21 21 21 22 20 20 23 21 21 22 22
19 18 20 18 19 16 16 15 14 14 14 14 13 13 13 13 14 14 14 15 15 15 15 15 15 16 16 17 17 17 18 20 22 23 24 25 23 21 22 23 22 22 23 23
17 16 18 18 17 17 15 14 14 13 13 13 13 13 13 13 13 14 14 14 15 15 16 16 17 18 18 19 18 19 20 22 25 25 25 24 24 23 23 22 21 22 23 23
17 17 17 18 16 15 14 14 13 12 13 13 13 13 12 13 14 14 14 14 15 15 16 18 17 17 17 19 20 22 22 24 24 24 24 24 24 24 24 23 23 22 22 21
16 17 18 18 16 16 15 14 14 13 12 13 13 14 14 14 13 14 14 15 15 16 19 18 19 19 20 21 21 23 24 24 25 25 24 25 25 25 25 25 25 22 20 19